Lid_Strength_Index
5 5 5 5 5 5 5 4 5 4 4 4 4 4 4 4 4 5 7 4 4 2 3 2 2 3 2 5 5 5 9 10 8 9 8 7 7 6 5 6 6 5 4 2 2
5 5 5 5 5 5 5 5 5 5 4 5 5 4 4 4 6 7 3 2 3 3 4 5 5 4 5 5 7 8 9 8 6 6 7 7 7 7 7 6 6 6 4 2 2
5 5 5 5 5 5 5 5 5 5 5 5 5 5 4 4 8 8 2 2 3 2 4 5 5 5 7 6 7 8 9 7 7 6 6 6 7 7 7 7 6 6 5 3 3
5 5 5 5 5 5 5 5 5 5 5 5 5 5 5 5 13 4 1 2 2 3 4 6 6 7 8 8 7 9 7 7 6 7 7 7 6 7 7 6 5 5 5 2 3
5 5 5 5 5 5 5 4 4 4 4 4 4 5 6 9 8 2 0 3 4 2 5 7 7 7 9 8 7 9 8 7 7 7 7 6 7 7 7 6 5 5 5 4 2
5 5 5 5 5 5 4 4 4 4 4 4 4 4 7 13 5 4 4 3 3 3 4 5 7 6 8 8 8 8 8 8 7 7 7 8 8 7 7 6 7 6 6 5 3
5 5 5 5 4 4 4 4 4 3 3 3 3 5 8 9 5 5 4 5 4 4 4 3 5 7 8 9 7 8 10 8 8 8 8 7 9 9 7 6 6 6 6 5 3
5 5 5 5 5 4 4 4 4 4 3 3 3 5 10 4 3 5 5 5 4 2 3 3 3 6 7 7 9 10 9 11 8 8 7 8 10 7 6 6 7 6 5 5 4
5 4 5 5 5 4 4 3 3 3 3 2 4 5 9 3 5 4 4 6 6 4 3 3 3 6 7 10 11 10 12 12 10 8 8 9 10 7 6 6 6 6 6 5 4
5 4 4 4 3 3 3 3 2 2 0 0 2 6 4 6 4 2 2 4 6 6 7 6 5 7 8 10 13 12 12 10 11 9 9 9 9 7 6 6 6 6 6 5 4
4 4 3 3 3 3 3 3 4 3 3 5 5 5 4 3 1 3 1 3 5 6 10 7 9 11 9 8 9 9 10 11 10 8 9 9 9 7 6 6 6 6 5 5 4
4 4 3 3 3 2 2 3 4 4 8 4 4 4 3 3 5 3 2 6 7 10 7 9 11 8 7 7 8 9 10 11 9 9 9 9 9 8 7 7 6 6 5 5 4
4 3 3 3 3 2 2 3 1 3 9 6 5 5 4 4 6 5 3 5 7 9 9 10 8 7 7 8 9 9 10 10 10 9 9 9 10 9 7 7 6 5 5 4 4
4 3 3 3 3 2 3 1 2 3 12 9 7 5 4 4 7 3 3 4 6 8 8 8 6 7 8 9 8 11 7 9 10 11 13 9 13 10 8 8 7 6 5 5 4
3 3 3 3 2 3 2 1 2 6 17 8 7 2 3 6 6 6 3 7 9 7 8 9 8 8 9 9 7 9 7 8 9 11 10 11 12 10 8 9 8 7 6 5 4
3 3 3 2 1 1 1 1 3 13 17 9 7 7 7 6 6 6 7 5 7 9 7 8 5 7 7 7 7 6 8 8 8 10 14 12 12 11 10 9 8 7 5 4 3
3 3 2 2 3 1 1 3 13 15 8 12 10 8 8 9 8 8 9 11 13 15 13 8 8 6 6 9 7 8 10 15 15 14 14 10 12 9 8 7 7 6 5 5 4
4 3 2 1 -0 0 1 8 16 11 11 9 9 9 11 8 8 9 10 13 10 10 12 12 13 8 7 9 10 10 10 13 17 16 13 10 13 10 7 7 6 6 6 5 4
4 2 2 0 -1 -0 5 12 13 12 10 11 11 11 10 9 10 10 12 13 11 10 13 13 11 7 7 7 7 10 12 7 11 10 12 12 10 9 8 9 8 8 7 7 6
4 4 3 -0 -1 2 7 12 10 9 9 10 14 12 14 12 12 12 11 10 12 9 8 10 15 8 8 6 7 8 7 12 10 15 15 13 12 11 11 11 9 9 8 7 6
4 5 3 -1 -0 4 11 10 9 7 8 11 12 13 11 14 12 13 12 11 10 10 9 10 12 11 8 10 11 10 10 9 9 10 14 15 12 7 9 10 10 9 7 6 6
5 7 2 -0 6 6 9 9 8 8 7 9 9 11 12 12 13 12 14 12 8 9 12 10 12 13 11 7 6 7 9 9 12 13 11 12 15 7 8 9 8 8 7 6 5
7 5 1 1 10 10 8 8 7 8 9 9 11 11 10 12 14 11 11 9 8 9 11 10 14 16 16 13 8 10 9 8 8 9 12 14 16 9 9 9 8 8 7 7 6
6 8 4 3 5 9 10 9 10 7 8 9 10 9 11 12 11 13 12 10 8 9 8 9 11 13 17 14 11 12 10 8 9 12 12 11 14 12 11 10 9 9 9 8 8
6 7 7 9 8 8 7 9 10 11 9 9 10 11 11 14 13 13 11 11 9 8 9 10 13 13 12 10 10 11 10 9 10 9 11 12 13 12 10 9 8 9 8 8 7
9 8 6 8 7 7 8 9 10 10 10 11 12 11 10 13 12 13 12 11 12 10 11 9 13 12 13 10 10 11 10 9 9 9 10 10 13 9 8 8 8 7 6 7 6
6 5 6 7 7 8 9 9 9 9 8 8 9 11 11 10 9 9 8 9 9 11 12 11 12 15 17 12 13 15 10 9 9 9 9 12 12 9 10 9 8 8 7 7 7